www.pogodaiklimat.ru

Погода и климат >> Архив погоды >> Мадагаскар >> Махадзанга


ПОГОДА в Махадзанге

  • Прогноз погоды в Махадзанге
  • Монитор погоды в Махадзанге

АРХИВ ПОГОДЫ в Махадзанге

Время (UTC), дата Ветер
(напр.,м/с)
 
Видим.   Явления Облачность Т
(С)
Тd
(С)
f
(%)
Тe
(С)
Тes
(С)
Комфортность P
(гПа)
Po
(гПа)
Тmin
(С)
Tmax
(С)
R
(мм)
R24
(мм)
S
(см)
00 11.06 ЮВ 2 30 км 1/1 1200 м
[Sc Ac trans]
+23.8 +16.0 62 +27 +27 жарко 1016.6 1014.5
03 11.06 ЮВ 1 30 км ясно +20.8 +18.8 88 +26 +26 душно 1016.6 1014.5
06 11.06 С 4 40 км ясно +27.0 +18.9 61 +32 +36 очень
душно
1017.7 1015.6 +19.8 +33.0
09 11.06 ЮВ 4 40 км 1/1 700 м
[Cu hum]
+31.0 +15.3 39 +33 +41 душно 1016.9 1014.8
12 11.06 ЮВ 4 40 км 1/1 700 м
[Cu med, cong]
+33.4 +15.3 34 +35 +39 душно 1014.5 1012.4
15 11.06 ЮВ 2 35 км 9/9 700 м
[Cu Sc Ac trans]
+30.0 +17.9 48 +34 +34 очень
душно
1015.8 1013.7 +33.5
18 11.06 ЮВ 5 30 км 5/5 600 м
[Cu Sc Ac trans]
+28.0 +16.9 51 +32 +32 душно 1017.5 1015.4 +33.5
21 11.06 ЮВ 3 30 км 3/3 600 м
[Cu Sc Ac trans]
+25.0 +18.8 68 +30 +30 душно 1017.3 1015.2
00 12.06 В 2 30 км 3/3 600 м
[Cu Sc Ac trans]
+22.3 +18.7 80 +28 +28 душно 1016.8 1014.7
03 12.06 ЮВ 5 30 км 1/1 600 м
[Cu med, cong]
+23.4 +16.3 64 +28 +28 душно 1017.4 1015.3
06 12.06 ЮВ 7 40 км 1/1 1200 м
[Sc]
+26.3 +15.0 50 +29 +31 жарко 1019.1 1017.0 +23.4 +33.5
09 12.06 ЮВ 6 40 км 1/1 700 м
[Cu hum]
+30.2 +13.7 36 +32 +36 жарко 1017.6 1015.5
12 12.06 В 5 40 км 1/1 700 м
[Cu Sc Ac trans Ci fib]
+32.0 +13.2 32 +33 +36 жарко 1015.5 1013.4
15 12.06 ЮВ 2 30 км 1/1 700 м
[Cu Sc Ac trans Ci fib]
+28.4 +14.4 42 +31 +31 душно 1017.1 1015.0 +32.2
18 12.06 ЮВ 3 30 км 1/1 1000 м
[St Ac lent]
+24.4 +14.6 54 +27 +27 жарко 1019.1 1017.0 +32.2
21 12.06 ЮВ 2 30 км 1/1 1200 м
[Sc Ac trans]
+23.0 +15.0 61 +27 +27 душно 1018.3 1016.2
00 13.06 ЮВ 2 30 км 1/1 1200 м
[Sc]
+21.0 +16.1 74 +25 +25 комфорт 1016.8 1014.7
03 13.06 ЮВ 2 35 км 1/1 1200 м
[Sc Ci fib]
+20.8 +16.2 75 +25 +25 комфорт 1017.5 1015.3
06 13.06 ЮВ 6 40 км 1/0
[Ci fib]
+25.4 +13.4 47 +27 +30 жарко 1018.8 1016.6 +20.2 +32.2
09 13.06 ЮВ 5 40 км 1/0
[Ci fib]
+29.4 +12.3 35 +30 +37 жарко 1017.5 1015.4
12 13.06 ЮВ 3 40 км 6/1 700 м
[Cu Sc Ac trans Ci sp]
+30.8 +12.8 33 +32 +35 жарко 1015.5 1013.3
15 13.06 ЮВ 1 30 км 6/3 1200 м
[Sc Ac trans Ci sp]
+27.0 +15.7 50 +30 +30 душно 1016.6 1014.5 +31.8
18 13.06 ЮВ 1 30 км 3/1 1200 м
[Sc Ac trans]
+23.4 +17.2 68 +29 +29 душно 1018.0 1015.9 +31.8
21 13.06 штиль 0 30 км 1/1 1200 м
[Sc Ac trans]
+20.9 +15.6 72 +24 +24 комфорт 1017.7 1015.6
00 14.06 ЮВ 1 30 км 1/1 1200 м
[Sc Ac trans]
+18.8 +16.9 89 +21 +21 комфорт 1016.5 1014.4
03 14.06 ЮВ 1 35 км 1/1 1200 м
[Sc Ac trans Ci fib]
+18.2 +15.9 86 +20 +20 1017.2 1015.1
06 14.06 Ю 2 40 км 1/0
[Ci fib]
+23.7 +15.7 61 +27 +33 жарко 1017.8 1015.6 +18.0 +31.8
09 14.06 Ю 2 40 км 1/0 600 м
[Ci fib]
+28.0 +14.9 45 +31 +44 душно 1016.3 1014.2
12 14.06 ЮВ 3 40 км 1/1 700 м
[Cu hum Ci fib]
+29.8 +15.7 42 +33 +37 душно 1014.5 1012.4
15 14.06 З 3 30 км 1/0
[Ci fib]
+25.0 +20.5 76 +31 +31 очень
душно
1015.7 1013.6 +30.0
18 14.06 З 3 30 км 6/1 1200 м
[Sc Ac trans Ci fib]
+25.5 +21.8 80 +33 +33 очень
душно
1016.4 1014.2 +30.0
21 14.06 ЮВ 1 30 км 6/1 1200 м
[Sc Ac trans]
+23.4 +21.3 88 +31 +31 очень
душно
1016.2 1014.1
00 15.06 ЮВ 1 30 км 4/1 1200 м
[Sc Ac trans]
+22.4 +20.8 91 +29 +29 очень
душно
1015.2 1013.1
03 15.06 В 1 30 км 8/4 1200 м
[Sc Ac trans]
+21.2 +19.8 92 +26 +26 душно 1015.1 1013.0
06 15.06 ЮВ 5 40 км 1/0
[Ci fib]
+27.0 +13.6 44 +29 +32 жарко 1016.9 1014.8 +21.2 +30.0
09 15.06 ЮВ 3 40 км 5/1 1200 м
[Sc Ac trans Ci sp]
+31.2 +12.4 32 +32 +40 жарко 1015.6 1013.5
12 15.06 ЮВ 4 40 км 6/1 700 м
[Cu Sc Ac trans Ci sp]
+31.6 +14.4 35 +33 +36 жарко 1014.0 1011.9
15 15.06 С 1 35 км 5/3 700 м
[Cu Sc Ac trans]
+25.8 +21.0 75 +32 +32 очень
душно
1014.7 1012.6 +32.2
18 15.06 ЮВ 1 30 км 5/3 700 м
[Cu Sc Ac trans]
+25.2 +16.0 57 +29 +29 душно 1016.9 1014.8 +32.2
21 15.06 ЮВ 2 30 км 5/3 700 м
[Cu Sc Ac trans]
+24.0 +16.8 64 +28 +28 душно 1017.2 1015.0
00 16.06 ЮВ 2 30 км 5/3 700 м
[Cu Sc Ac trans]
+22.3 +17.0 72 +27 +27 душно 1016.2 1014.0
03 16.06 штиль 0 30 км 5/4 600 м
[Cu Sc Ac trans]
+20.0 +16.7 81 +22 +22 комфорт 1017.3 1015.1
06 16.06 ЮВ 5 40 км 5/4 600 м
[Cu Sc Ac trans]
+26.1 +14.5 49 +29 +30 жарко 1019.0 1016.9 +18.8 +32.2
09 16.06 ЮВ 6 40 км 5/1 700 м
[Cu Sc Ac trans]
+30.4 +16.1 42 +33 +37 душно 1017.5 1015.3
12 16.06 ЮВ 3 40 км 4/3 700 м
[Cu Sc Ac trans]
+31.5 +15.5 38 +34 +37 душно 1015.8 1013.7
15 16.06 ЮВ 1 30 км 8/5 700 м
[Cu Sc Ac trans]
+28.0 +15.4 46 +31 +31 душно 1017.1 1015.0 +31.8
18 16.06 ЮВ 2 30 км 8/5 600 м
[St Ac lent]
+26.4 +14.9 49 +29 +29 жарко 1018.9 1016.8 +31.8
21 16.06 ЮВ 2 30 км 3/1 1200 м
[Sc Ac trans]
+23.5 +14.2 56 +26 +26 жарко 1019.0 1016.9
00 17.06 ЮВ 2 30 км 1/1 1200 м
[Sc Ac trans]
+21.4 +13.9 62 +24 +24 комфорт 1017.9 1015.8
03 17.06 Ю 2 35 км 1/1 1200 м
[Sc Ac trans]
+20.7 +15.2 71 +24 +24 комфорт 1018.1 1016.0
06 17.06 Ю 4 40 км 6/4 600 м
[Cu Sc Ac trans]
+26.3 +15.0 50 +29 +31 жарко 1019.7 1017.5 +20.0 +31.8
09 17.06 ЮВ 5 40 км 3/1 700 м
[Cu med, cong Ac trans]
+30.2 +13.2 35 +31 +37 жарко 1018.0 1015.9
12 17.06 ЮВ 3 40 км 6/5 700 м
[Cu Sc Ac trans Ci sp]
+30.8 +12.0 32 +31 +34 жарко 1017.1 1015.0
15 17.06 ЮВ 1 30 км 6/5 600 м
[Cu Sc Ac trans]
+28.0 +14.3 43 +30 +30 жарко 1017.0 1014.9 +32.0
18 17.06 ЮВ 1 30 км 5/4 600 м
[Cu Sc Ac trans]
+26.0 +17.5 59 +30 +30 душно 1018.7 1016.6 +32.0

 

Местоположение метеостанции Махадзанга (Мадагаскар): широта -15.66 долгота 46.35 высота над уровнем моря 18 м.

В архиве по умолчанию представлена погода в Махадзанге за последнюю неделю. Архивные данные за месяц целиком и за предыдущие месяцы, начиная с января 2011 года, Вы можете получить, выбрав интересующий диапазон дат из раскрывающегося списка и нажав кнопку "Ввод!".


*Определитесь, кто Вы:
робот инопланетянин человек

Внимание! Время в таблицах - всемирное. Для получения местного времени необходимо прибавить поправку, которая равна 3 ч.

Смотрите также архив погоды в соседних городах и на ближайших метеорологических станциях:

Погода в Анцухихи (Мадагаскар) (195 км)
Погода в Бесалампи (Мадагаскар) (234 км)
Погода в Амбоайтзилаозане (Мадагаскар) (317 км)
Погода в Аэропорту Fascene (Мадагаскар) (337 км)
Погода в Дзаудзи (Коморские Острова) (338 км)
Погода в Мэнтирано (Мадагаскар) (363 км)
Погода в Антананариву аэропорт (Мадагаскар) (369 км)
Погода в Антананариву (Мадагаскар) (377 км)
Погода на Нуси Бураха (Мадагаскар) (403 км)
Погода на Острове Жуан-ди-Нова (Реюньон) (417 км)

Пояснения к столбцам:

Ветер - указаны скорость ветра в м/с - средняя за 10 мин, порывы в срок и между сроками (в фигурных скобках) и направление, откуда дует ветер: С - северный, СВ - северо-восточный, В - восточный, ЮВ - юго-восточный, Ю - южный, ЮЗ - юго-западный, З - западный, СЗ - северо-западный.
Видимость - горизонтальная дальность видимости в метрах или километрах. При видимости от 1 до 10 км при отсутствии осадков обычно наблюдается дымка, при ухудшении видимости до 1 км и менее - туман. В сухую погоду видимость может ухудшаться дымом, пылью или мглою.
Явления - указаны атмосферные явления, наблюдавшиеся в срок или в последний час перед сроком; фигурными скобками обозначены явления, наблюдавшиеся между сроками (за 1-3 часа до срока); квадратными скобками обозначены град или гололедные отложения с указанием их диаметра в мм.
Облачность - указаны через наклонную черту общая и нижняя облачность в баллах и высота нижней границы облаков в метрах; квадратными скобками обозначены формы облаков: Ci - перистые, Cs - перисто-слоистые, Cc - перисто-кучевые, Ac - высококучевые, As - высокослоистые, Sc - слоисто-кучевые, Ns - слоисто-дождевые, Cu - кучевые, Cb - кучево-дождевые. Подробнее классификацию облаков см. в Атласе облаков (PDF).
T - Температура воздуха - температура, измеренная на высоте 2 м над землей.
Td - Температура точки росы - температура, при понижении до которой содержащийся в воздухе водяной пар достигнет насыщения.
f - Относительная влажность воздуха - влажноcть воздуха, измеренная на высоте 2 м над землей.
Te - Эффективная температура - температура, которую ощущает одетый по сезону человек в тени. Характеристика душности погоды. При расчете учитывается влияние влажности воздуха и скорости ветра на теплоощущения человека.
Tes - Эффективная температура на солнце - температура, которую ощущает человек, с поправкой на солнечный нагрев. Характеристика знойности погоды. Зависит от высоты солнца над горизонтом, облачности и скорости ветра. Ночью, в пасмурную погоду, а также при ветре 12 м/с и более поправка равна нулю.
P - Атмосферное давление - приведенное к уровню моря атмосферное давление.
Po - Атмосферное давление - измеренное на уровне метеостанции атмосферное давление.
Tmin - Минимальная температура - минимум температуры воздуха на высоте 2 м над землей.
Tmax - Максимальная температура - максимум температуры воздуха на высоте 2 м над землей.
R - Количество осадков - Количество выпавших осадков за период времени, мм. При наведении курсора мыши на число - период времени, за который выпало указанное количество осадков.
R24 - Количество осадков - Количество выпавших осадков за 24 часа, мм.
S - Снежный покров - Высота снежного покрова, см. При наведении курсора мыши на число - состояние снежного покрова и степень покрытия местности в баллах.